www.pogodaiklimat.ru

Погода и климат >> Архив погоды >> Пакистан >> Дера-Исмаил-Хан


ПОГОДА в Дера-Исмаил-Хане

  • Прогноз погоды в Дера-Исмаил-Хане
  • Монитор погоды в Дера-Исмаил-Хане

АРХИВ ПОГОДЫ в Дера-Исмаил-Хане

Время (UTC), дата Ветер
(напр.,м/с)
 
Видим.   Явления Облачность Т
(С)
Тd
(С)
f
(%)
Тe
(С)
Тes
(С)
Комфортность P
(гПа)
Po
(гПа)
Тmin
(С)
Tmax
(С)
R
(мм)
R24
(мм)
S
(см)
12 18.06 штиль 0 10 км 9/4 1110 м
[Sc As op]
+29.0 +23.2 71 +39 +40 очень
душно
996.0 977.0 +37.0 1
15 18.06 Ю 1 4000 м ясно +28.0 +22.1 70 +36 +36 очень
душно
999.2 1000.0
18 18.06 штиль 0 4000 м ясно +26.0 +21.6 77 +33 +33 очень
душно
1001.1 981.8
21 18.06 штиль 0 4000 м ясно +24.0 +21.0 83 +30 +30 очень
душно
999.9 1000.0
00 19.06 Ю 1 4000 м ясно +24.0 +21.0 83 +30 +30 очень
душно
999.6 980.1
03 19.06 СЗ 1 10 км ясно +27.0 +22.6 77 +36 +44 очень
душно
1000.6 981.4 +22.5
06 19.06 СЗ 1 10 км ясно +33.0 +23.0 56 +43 +67 опасность
перегрева
1000.3 981.4
09 19.06 СЗ 1 10 км ясно +36.0 +17.7 34 +39 +63 опасность
солнечного
удара
998.6 1000.0
12 19.06 СЗ 1 10 км ясно +33.0 +23.0 56 +43 +49 опасность
перегрева
1000.3 981.4 +40.1
15 19.06 СЗ 1 10 км ясно +33.0 +23.0 56 +43 +43 опасность
перегрева
1000.3 981.4
18 19.06 СВ 1 4000 м 5/5 1110 м
[Sc]
+31.5 +22.9 60 +41 +41 опасность
перегрева
998.0 979.0
21 19.06 ЮВ 1 4000 м 8/4 1110 м
[Sc As op]
+30.0 +22.0 62 +39 +39 очень
душно
997.8 1000.0
00 20.06 ЮЗ 1 4000 м 10/4 1110 м
[Sc As op]
+29.0 +22.4 68 +38 +38 очень
душно
997.4 978.3
03 20.06 ЮВ 1 10 км 5/5 1110 м
[Sc]
+32.0 +23.4 60 +43 +46 опасность
перегрева
999.8 980.8 +25.5
06 20.06 ЮВ 1 10 км 5/5 1110 м
[Sc]
+37.0 +24.4 49 +49 +61 опасность
перегрева
999.5 980.9
09 20.06 ЮВ 1 10 км ясно +41.0 +24.4 39 +52 +74 опасность
перегрева
997.5 978.9
12 20.06 штиль 0 4000 м гроза с градом 10/5 1110 м
[Sc As op]
+25.0 +23.5 91 +34 +34 очень
душно
999.2 979.8 +42.0 4
15 20.06 ЮВ 1 4000 м 10/5 1110 м
[Sc As op]
+24.5 +20.7 79 +30 +30 очень
душно
1000.1 980.4 4
18 20.06 СЗ 2 4000 м 10/5 1110 м
[Sc As op]
+25.0 +22.0 83 +32 +32 очень
душно
1002.6 983.2
21 20.06 СЗ 1 4000 м 10/5 1110 м
[Sc As op]
+24.0 +21.0 83 +30 +30 очень
душно
1001.3 1000.0
00 21.06 штиль 0 4000 м 5/5 1110 м
[Sc]
+24.0 +21.8 88 +31 +31 очень
душно
1002.5 1009.8
03 21.06 СЗ 1 10 км ясно +27.0 +22.6 77 +36 +44 очень
душно
1004.0 984.8 +23.1
06 21.06 штиль 0 10 км ясно +32.0 +20.0 49 +38 +65 опасность
солнечного
удара
1004.2 985.1
09 21.06 СВ 1 10 км ясно +35.0 +22.0 47 +44 +67 опасность
перегрева
1002.4 1000.0
12 21.06 ЮВ 1 10 км ясно +36.0 +23.2 48 +46 +52 опасность
перегрева
1000.2 981.5 +37.1
15 21.06 штиль 0 4000 м ясно +33.0 +24.6 61 +46 +46 опасность
перегрева
999.9 981.0
18 21.06 штиль 0 4000 м ясно +30.0 +25.1 75 +43 +43 опасность
перегрева
1001.0 982.0
21 21.06 штиль 0 4000 м ясно +28.0 +23.7 77 +38 +38 очень
душно
1000.1 981.0
00 22.06 штиль 0 4000 м 10/5 1110 м
[Sc As op]
+28.0 +23.7 77 +38 +38 очень
душно
1000.0 980.9
03 22.06 штиль 0 10 км ясно +32.0 +24.2 63 +44 +53 опасность
перегрева
1002.5 983.5 +25.5
06 22.06 штиль 0 10 км ясно +37.0 +22.8 44 +46 +73 опасность
перегрева
1001.7 983.1
09 22.06 штиль 0 10 км ясно +39.0 +23.5 41 +49 +74 опасность
перегрева
999.1 980.7
12 22.06 штиль 0 10 км ясно +39.0 +23.5 41 +49 +55 опасность
перегрева
997.5 979.1 +41.0
15 22.06 штиль 0 4000 м 4/4 1110 м
[Sc]
+36.5 +25.5 53 +51 +51 опасность
перегрева
997.5 1000.0
18 22.06 штиль 0 4000 м ясно +32.0 +25.0 67 +46 +46 опасность
перегрева
999.0 980.0
21 22.06 штиль 0 4000 м ясно +29.0 +23.2 71 +39 +39 очень
душно
998.6 1000.0
00 23.06 штиль 0 4000 м ясно +29.0 +23.2 71 +39 +39 очень
душно
999.1 980.0
03 23.06 штиль 0 10 км ясно +32.5 +27.0 73 +51 +60 опасность
перегрева
1000.9 982.0 +26.5
12 23.06 ЮВ 1 10 км 9/4 1110 м
[Sc As op]
+36.0 +24.0 50 +47 +49 опасность
перегрева
997.7 979.0 +41.0
15 23.06 ЮВ 2 4000 м {гроза, дождь} 10/5 1110 м
[Sc As op]
+24.5 +22.3 88 +32 +32 очень
душно
1001.4 1000.0 21
18 23.06 ЮВ 1 4000 м 9/4 1110 м
[Sc As op]
+25.0 +22.8 88 +33 +33 очень
душно
1002.3 982.8
21 23.06 ЮВ 1 4000 м 9/4 1110 м
[Sc As op]
+24.0 +21.8 88 +31 +31 очень
душно
1002.9 983.1
00 24.06 ЮЗ 1 4000 м 9/4 1110 м
[Sc As op]
+24.0 +21.8 88 +31 +31 очень
душно
1002.1 982.6
03 24.06 ЮЗ 1 10 км 9/4 1110 м
[Sc As op]
+26.0 +23.8 88 +36 +37 очень
душно
1004.7 985.3 +21.5
06 24.06 штиль 0 10 км 8/4 1110 м
[Sc As op]
+29.5 +23.8 71 +40 +48 очень
душно
1004.6 985.4
09 24.06 СВ 1 10 км 6/3 1110 м
[Sc As op]
+34.0 +24.9 59 +47 +57 опасность
перегрева
1003.2 984.1
12 24.06 штиль 0 10 км 4/0
[As op]
+34.0 +24.1 56 +46 +50 опасность
перегрева
1001.3 982.2 +35.0
15 24.06 штиль 0 4000 м 4/0
[As op]
+31.0 +25.4 72 +45 +45 опасность
перегрева
1005.6 1000.0
18 24.06 штиль 0 4000 м 6/3 1110 м
[Sc As op]
+30.0 +25.1 75 +43 +43 опасность
перегрева
1003.6 984.5
21 24.06 штиль 0 4000 м 6/3 1110 м
[Sc As op]
+28.5 +24.2 78 +40 +40 очень
душно
1004.2 1000.0
00 25.06 штиль 0 4000 м 9/4 1110 м
[Sc As op]
+27.5 +24.7 85 +39 +39 очень
душно
1003.0 983.7
03 25.06 штиль 0 10 км 4/0
[As op]
+28.5 +25.0 81 +41 +47 опасность
перегрева
1003.7 984.5 +24.5
06 25.06 штиль 0 10 км ясно +35.5 +23.5 50 +46 +73 опасность
перегрева
1003.6 984.7
09 25.06 штиль 0 10 км ясно +37.5 +20.7 38 +44 +69 опасность
перегрева
1002.3 1000.0

 

Местоположение метеостанции Дера-Исмаил-Хан (Пакистан): широта 31.82 долгота 70.92 высота над уровнем моря 173 м.

В архиве по умолчанию представлена погода в Дера-Исмаил-Хане за последнюю неделю. Архивные данные за месяц целиком и за предыдущие месяцы, начиная с января 2011 года, Вы можете получить, выбрав интересующий диапазон дат из раскрывающегося списка и нажав кнопку "Ввод!".


*Определитесь, кто Вы:
робот инопланетянин человек

Внимание! Время в таблицах - всемирное. Для получения местного времени необходимо прибавить поправку, которая равна 5 ч.

Смотрите также архив погоды в соседних городах и на ближайших метеорологических станциях:

Погода в Бхаккаре (Пакистан) (26 км)
Погода в Леяхе (Пакистан) (89 км)
Погода в Нур Пур Тал (Пакистан) (93 км)
Погода в Мианвали (Пакистан) (99 км)
Погода в Джанге (Пакистан) (146 км)
Погода в Зхобе (Пакистан) (147 км)
Погода в Банну (Пакистан) (152 км)
Погода в Кот Адду (Пакистан) (152 км)
Погода в Джаухарабаде (Пакистан) (161 км)
Погода в Саргодхе (Пакистан) (167 км)

Пояснения к столбцам:

Ветер - указаны скорость ветра в м/с - средняя за 10 мин, порывы в срок и между сроками (в фигурных скобках) и направление, откуда дует ветер: С - северный, СВ - северо-восточный, В - восточный, ЮВ - юго-восточный, Ю - южный, ЮЗ - юго-западный, З - западный, СЗ - северо-западный.
Видимость - горизонтальная дальность видимости в метрах или километрах. При видимости от 1 до 10 км при отсутствии осадков обычно наблюдается дымка, при ухудшении видимости до 1 км и менее - туман. В сухую погоду видимость может ухудшаться дымом, пылью или мглою.
Явления - указаны атмосферные явления, наблюдавшиеся в срок или в последний час перед сроком; фигурными скобками обозначены явления, наблюдавшиеся между сроками (за 1-3 часа до срока); квадратными скобками обозначены град или гололедные отложения с указанием их диаметра в мм.
Облачность - указаны через наклонную черту общая и нижняя облачность в баллах и высота нижней границы облаков в метрах; квадратными скобками обозначены формы облаков: Ci - перистые, Cs - перисто-слоистые, Cc - перисто-кучевые, Ac - высококучевые, As - высокослоистые, Sc - слоисто-кучевые, Ns - слоисто-дождевые, Cu - кучевые, Cb - кучево-дождевые. Подробнее классификацию облаков см. в Атласе облаков (PDF).
T - Температура воздуха - температура, измеренная на высоте 2 м над землей.
Td - Температура точки росы - температура, при понижении до которой содержащийся в воздухе водяной пар достигнет насыщения.
f - Относительная влажность воздуха - влажноcть воздуха, измеренная на высоте 2 м над землей.
Te - Эффективная температура - температура, которую ощущает одетый по сезону человек в тени. Характеристика душности погоды. При расчете учитывается влияние влажности воздуха и скорости ветра на теплоощущения человека.
Tes - Эффективная температура на солнце - температура, которую ощущает человек, с поправкой на солнечный нагрев. Характеристика знойности погоды. Зависит от высоты солнца над горизонтом, облачности и скорости ветра. Ночью, в пасмурную погоду, а также при ветре 12 м/с и более поправка равна нулю.
P - Атмосферное давление - приведенное к уровню моря атмосферное давление.
Po - Атмосферное давление - измеренное на уровне метеостанции атмосферное давление.
Tmin - Минимальная температура - минимум температуры воздуха на высоте 2 м над землей.
Tmax - Максимальная температура - максимум температуры воздуха на высоте 2 м над землей.
R - Количество осадков - Количество выпавших осадков за период времени, мм. При наведении курсора мыши на число - период времени, за который выпало указанное количество осадков.
R24 - Количество осадков - Количество выпавших осадков за 24 часа, мм.
S - Снежный покров - Высота снежного покрова, см. При наведении курсора мыши на число - состояние снежного покрова и степень покрытия местности в баллах.